AirNav   TITAN Aviation Fuels
 
 1149 users online  

FD22 Melrose Landing Airport
Melrose, Florida, USA

GOING TO MELROSE?


FAA INFORMATION EFFECTIVE 19 MAY 2022

Location

FAA Identifier: FD22
Lat/Long: 29-40-00.8840N 081-57-18.3390W
29-40.014733N 081-57.305650W
29.6669122,-81.9550942
(estimated)
Elevation: 159 ft. / 48 m (estimated)
Variation: 03W (1985)
From city: 7 miles SE of MELROSE, FL
Time zone: UTC -4 (UTC -5 during Standard Time)
Zip code: 32640

Airport Operations

Airport use: Private use. Permission required prior to landing
Activation date: 10/1984
Control tower: no
ARTCC: JACKSONVILLE CENTER
FSS: GAINESVILLE FLIGHT SERVICE STATION
Attendance: CONTINUOUS
Wind indicator: yes
Segmented circle: yes
NON-STD SIZE.
Lights: SS-SR
Beacon: white-green (lighted land airport)
Operates sunset to sunrise.

Airport Communications

WX AWOS-3 at 42J (12 nm NW): 124.275 (352-473-8273)
WX AWOS-3 at 28J (14 nm E): 119.925 (386-312-2212)
WX ASOS at GNV (17 nm W): 127.15 (352-335-8672)

Nearby radio navigation aids

VOR radial/distance  VOR name  Freq  Var
GNVr099/16.6GATORS VORTAC116.2004W
OCFr026/32.6OCALA VORTAC113.7000E
SGJr248/36.9ST AUGUSTINE VOR/DME109.4006W

 
NDB name  Hdg/Dist  Freq  Var  ID
WYNDS095/11.326904WGN --. -.
REYNOLDS228/23.733807WRYD .-. -.-- -..

Airport Services

Parking: tiedowns

Runway Information

Runway 5/23

Dimensions: 4600 x 50 ft. / 1402 x 15 m
NE 3400 FT ASPH; SW 1200 FT TURF.
Surface: asphalt/turf, in good condition
Runway edge lights: low intensity
DUSK-DAWN: RWY 05 THR LGTS DSPLCD 75 FT PRIOR TO PAVED SFC.
Runway edge markings: 05/23 CNTRLN STRIPE NSTD.
RUNWAY 5  RUNWAY 23
Traffic pattern: rightleft
Displaced threshold: no480 ft.

Airport Ownership and Management from official FAA records

Ownership: Privately-owned
Owner: MELROSE LANDING APT PROPERTY OWNERS
126 MELROSE LANDING DR
HAWTHORNE, FL 32640
Phone 610-659-2051
CTC FOR ARPT MGR.
Manager: MARK A BENSON
131 PIPER DRIVE
HAWTHORNE, FL 32640
Phone 610-659-2051

Airport Operational Statistics

Aircraft based on the field: 25
Single engine airplanes: 24
Jet airplanes: 1
    

Additional Remarks

FOR CD CTC JACKSONVILLE APCH AT 904-741-0284.

Instrument Procedures

There are no published instrument procedures at FD22.

Some nearby airports with instrument procedures:

42J - Keystone Heights Airport (12 nm NW)
28J - Palatka Municipal Airport - Lt. Kay Larkin Field (14 nm E)
KGNV - Gainesville Regional Airport (17 nm W)
X60 - Williston Municipal Airport (33 nm SW)
KOCF - Ocala International Airport-Jim Taylor Field (33 nm SW)
 
Loc | Ops | Rwys | IFR | FBO | Links
Com | Nav | Svcs | Stats | Notes
Area around FD22 (Melrose Landing Airport)
 
Road maps at: MapQuest Bing Google
 
Aerial photo
WARNING: Photo may not be current or correct
Aerial photo of FD22 (Melrose Landing Airport)
Do you have a better or more recent aerial photo of Melrose Landing Airport that you would like to share? If so, please send us your photo.

 
Sectional chart

 
Airport distance calculator
Flying to Melrose Landing Airport? Find the distance to fly.

From to FD22

Sunrise and sunset
Times for 25-May-2022
 Local
(UTC-4)
 Zulu
(UTC)
Morning civil twilight06:0410:04
Sunrise06:3110:31
Sunset20:1800:18
Evening civil twilight20:4500:45

Current date and time
Zulu (UTC)  26-May-2022 01:35:22
Local (UTC-4)  25-May-2022 21:35:22
 
METAR
K42J 
12nm NW 
260115Z AUTO 11007G12KT 10SM BKN044 OVC050 25/21 A3009 RMK A01
K28J 
14nm E 
260115Z AUTO 13007KT 9SM FEW045 OVC055 23/19 A3010 RMK AO2
KGNV 
17nm W 
260053Z 10009KT 10SM FEW048 SCT060 27/21 A3010 RMK AO2 SLP190 T02670211
TAF
KGNV 
17nm W 
251725Z 2518/2618 13012G18KT P6SM SCT040 BKN150 BKN250 FM260000 13008KT P6SM SCT040 BKN150 BKN250 FM260300 14004KT P6SM FEW025 BKN150 BKN250 FM261400 16012G18KT P6SM SCT025 BKN150 BKN250
NOTAMs
Click for the latest NOTAMs
NOTAMs are issued by the DoD/FAA and will open in a separate window not controlled by AirNav.

 

 
 

Would you like to see your business listed on this page?

 If your business provides an interesting product or service to pilots, flight crews, aircraft, or users of the Melrose Landing Airport, you should consider listing it here.  To start the listing process, click on the button below
 
Add a business
 

Other Pages about Melrose Landing Airport

www.melroselanding.org
www.melroselanding.com
 
Update a link
 
Copyright © AirNav, LLC. All rights reserved. Privacy Policy  Contact